Regional Weather Roundup
Issued by NWS

Home | Current Version | Previous Version | Text Only | Print | Product List | Glossary On
Versions: 1 2 3 4 5 6 7 8 9 10 11 12 13 14 15 16 17 18 19 20 21 22 23 24 25 26 27 28 29 30 31 32 33 34 35 36 37 38 39 40 41 42 43 44 45 46 47 48 49 50
000
ASUS42 KKEY 231010
RWRKEY

FLORIDA REGIONAL WEATHER ROUNDUP FOR THE FLORIDA KEYS
NATIONAL WEATHER SERVICE KEY WEST FLORIDA
600 AM EDT MON OCT 23 2017

...SOUTH FLORIDA AND THE KEYS...

CITY           SKY/WX    TMP DP  RH WIND       PRES   REMARKS
FORT MYERS     CLOUDY    72  72 100 E3        30.03R
SW REGIONAL AP MOCLDY    75  75 100 E7        30.03S
NAPLES         MOCLDY    76  75  97 E7        30.02S
MIAMI          MOCLDY    81  74  79 SE8       30.03S
WEST KENDALL   CLEAR     79  73  82 SE8       30.03R
HOMESTEAD      PTCLDY    79  77  91 E7        30.02R
MARATHON       CLEAR     82  73  74 SE10G18   30.00S
KEY WEST INTL  NOT AVBL

...INTERNATIONAL WEATHER...

CITY           SKY/WX    TMP DP  RH WIND       PRES   REMARKS
NASSAU BAHAMAS PTCLDY    81  75  83 E9        30.06R
CANCUN MEXICO  PTCLDY    73  73 100 NW3       29.95S
COZUMEL MEXICO PTCLDY    75  73  94 CALM      29.93R

ADJACENT COASTAL WATERS...

STATION/POSITION TIME  SKY/WX   TEMP    WIND        PRES    WAVE
                                AIR SEA DIR/SP/G            HT/PER
                 (UTC)          (F)     (DEG/KT/KT) (MB)    (FT/S)
PULASKI SHOAL LI 1000            80     120/ 13/ 17 1016.2R
SAND KEY         0950            82                 1016.3S
LONG KEY         NOT AVBL
MOLASSES REEF    1000            82 83  110/ 15/ 16 1016.7R
FOWEY ROCKS      1000            82 82  120/ 20/ 21 1017.3R
Buoy 42097       0930               83                N/A     4/ 6

$$



USA.gov is the U.S. government's official web portal to all federal, state and local government web resources and services.